Date String (YYYY-MM-DD hh:mm:ss) UTC,Instrument flags,Ambient pressure (hPa),Sample flow (lpm),Bypass flow (lpm),Sample temperature (°C),Ambient temperature (°C),ASC tube jacket temperature (°C),LED temperature (°C),Box temperature (°C),Sample RH (%),Span deviation,Mass concentration (μg/m³),Mass concentration (μg/m³),Mass concentration (μg/m³)
DateTimeUTC,F1_M11,P_M11,Q1_M11,Q2_M11,T1_M11,T2_M11,T3_M11,T4_M11,T5_M11,U1_M11,ZSPAN_M11,X0_M11,X2_M11,X1_M11
2023-01-29 13:00:00,,0822.6,5.00,0.00,22.5,21.2,00.0,31.3,24.1,05.2,0000.0,0005.45,0004.16,0003.98
2023-01-29 13:01:00,,0822.7,5.00,0.00,22.4,20.9,00.0,31.3,24.0,05.2,0000.0,0005.39,0004.15,0003.97
2023-01-29 13:02:00,,0822.6,5.00,0.00,22.4,20.7,00.0,31.3,23.9,05.2,0000.0,0005.31,0004.14,0003.98
2023-01-29 13:03:00,,0822.6,5.01,0.00,22.4,21.2,00.0,31.3,24.1,05.2,0000.0,0005.21,0004.12,0003.98
2023-01-29 13:04:00,,0822.7,5.00,0.00,22.5,22.1,00.0,31.2,24.3,05.2,0000.0,0005.16,0004.10,0003.97
2023-01-29 13:05:00,,0822.7,5.00,0.00,22.6,23.0,00.0,31.2,24.6,05.2,0000.0,0005.12,0004.10,0003.98
2023-01-29 13:06:00,,0822.7,4.99,0.00,22.7,23.1,00.0,31.3,24.7,05.1,0000.0,0005.17,0004.12,0003.98
2023-01-29 13:07:00,,0822.7,5.00,0.00,22.7,22.4,00.0,31.4,24.5,05.1,0000.0,0005.31,0004.15,0004.00
2023-01-29 13:08:00,,0822.6,5.01,0.00,22.6,21.8,00.0,31.4,24.3,05.1,0000.0,0005.40,0004.19,0004.02
2023-01-29 13:09:00,,0822.7,5.01,0.00,22.6,21.4,00.0,31.4,24.2,05.1,0000.0,0005.48,0004.21,0004.03
2023-01-29 13:10:00,,0822.6,5.01,0.00,22.5,21.0,00.0,31.4,24.1,05.1,0000.0,0005.52,0004.22,0004.05
2023-01-29 13:11:00,,0822.6,5.00,0.00,22.5,20.8,00.0,31.4,24.0,05.1,0000.0,0005.55,0004.23,0004.06
2023-01-29 13:12:00,,0822.7,5.00,0.00,22.4,20.6,00.0,31.4,23.9,05.2,0000.0,0005.55,0004.24,0004.07
2023-01-29 13:13:00,,0822.7,5.01,0.00,22.4,21.0,00.0,31.3,24.0,05.2,0000.0,0005.59,0004.26,0004.08
2023-01-29 13:14:00,,0822.8,5.01,0.00,22.5,22.0,00.0,31.3,24.3,05.1,0000.0,0005.59,0004.27,0004.09
2023-01-29 13:15:00,,0822.8,5.00,0.00,22.6,22.9,00.0,31.3,24.6,05.1,0000.0,0005.75,0004.32,0004.12
2023-01-29 13:16:00,,0822.8,4.98,0.00,22.7,23.2,00.0,31.3,24.7,05.1,0000.0,0005.84,0004.33,0004.13
2023-01-29 13:17:00,,0822.7,4.99,0.00,22.7,22.6,00.0,31.4,24.6,05.1,0000.0,0005.76,0004.30,0004.11
2023-01-29 13:18:00,,0822.8,5.04,0.00,22.7,21.9,00.0,31.4,24.4,05.1,0000.0,0005.58,0004.25,0004.08
2023-01-29 13:19:00,,0822.8,5.00,0.00,22.6,21.4,00.0,31.4,24.2,05.1,0000.0,0005.50,0004.21,0004.05
2023-01-29 13:20:00,,0822.8,5.01,0.00,22.5,21.0,00.0,31.4,24.1,05.1,0000.0,0005.40,0004.17,0004.02
2023-01-29 13:21:00,,0822.8,5.03,0.00,22.5,20.8,00.0,31.4,24.0,05.1,0000.0,0005.37,0004.15,0004.00
2023-01-29 13:22:00,,0822.8,5.00,0.00,22.4,20.6,00.0,31.4,24.0,05.1,0000.0,0005.35,0004.12,0003.98
2023-01-29 13:23:00,,0822.7,5.00,0.00,22.5,21.4,00.0,31.3,24.2,05.1,0000.0,0006.54,0004.10,0003.96
2023-01-29 13:24:00,,0822.7,4.99,0.00,22.6,22.4,00.0,31.3,24.4,05.0,0000.0,0006.47,0004.06,0003.93
2023-01-29 13:25:00,,0822.8,5.00,0.00,22.7,23.1,00.0,31.3,24.7,05.0,0000.0,0006.48,0004.04,0003.90
2023-01-29 13:26:00,,0822.8,4.99,0.00,22.7,23.0,00.0,31.4,24.7,05.0,0000.0,0006.34,0003.99,0003.86
2023-01-29 13:27:00,,0822.8,5.00,0.00,22.7,22.3,00.0,31.4,24.5,04.9,0000.0,0006.38,0004.00,0003.85
2023-01-29 13:28:00,,0822.8,5.01,0.00,22.7,21.7,00.0,31.4,24.4,05.0,0000.0,0006.47,0004.01,0003.85
2023-01-29 13:29:00,,0822.8,4.97,0.00,22.6,21.3,00.0,31.4,24.2,05.0,0000.0,0006.47,0004.02,0003.86
2023-01-29 13:30:00,,0822.9,4.99,0.00,22.5,20.9,00.0,31.4,24.0,05.0,0000.0,0006.38,0004.01,0003.87
2023-01-29 13:31:00,,0823.0,5.02,0.00,22.5,20.7,00.0,31.4,23.9,05.0,0000.0,0006.43,0004.02,0003.87
2023-01-29 13:32:00,,0823.0,5.02,0.00,22.5,21.3,00.0,31.4,24.1,05.0,0000.0,0006.39,0004.01,0003.87
2023-01-29 13:33:00,,0822.9,5.01,0.00,22.6,22.3,00.0,31.4,24.4,05.0,0000.0,0006.46,0004.03,0003.87
2023-01-29 13:34:00,,0823.0,4.99,0.00,22.7,23.1,00.0,31.4,24.7,04.9,0000.0,0005.47,0004.04,0003.88
2023-01-29 13:35:00,,0823.0,5.00,0.00,22.8,22.9,00.0,31.4,24.7,04.9,-000.6,0005.32,0004.06,0003.89
2023-01-29 13:36:00,,0823.1,5.00,0.00,22.7,22.2,00.0,31.5,24.5,04.9,0000.0,0005.42,0004.08,0003.89
2023-01-29 13:37:00,,0823.0,4.98,0.00,22.7,21.7,00.0,31.5,24.3,04.9,-003.9,0005.45,0004.09,0003.90
2023-01-29 13:38:00,,0822.9,4.99,0.00,22.6,21.2,00.0,31.5,24.2,04.9,-003.1,0005.35,0004.07,0003.89
2023-01-29 13:39:00,,0823.0,5.00,0.00,22.5,20.9,00.0,31.5,24.0,04.9,-002.9,0005.31,0004.08,0003.90
2023-01-29 13:40:00,,0823.1,4.99,0.00,22.5,20.6,00.0,31.4,23.9,04.9,-004.1,0005.49,0004.12,0003.90
2023-01-29 13:41:00,,0823.1,5.00,0.00,22.4,20.6,00.0,31.4,23.9,04.9,-003.3,0005.54,0004.13,0003.90
2023-01-29 13:42:00,,0823.0,5.01,0.00,22.5,21.6,00.0,31.4,24.2,04.9,-002.8,0005.47,0004.12,0003.90
2023-01-29 13:43:00,,0823.0,4.99,0.00,22.6,22.5,00.0,31.3,24.5,04.9,-001.3,0005.51,0004.13,0003.91
2023-01-29 13:44:00,,0823.1,5.01,0.00,22.7,23.1,00.0,31.4,24.7,04.9,-000.5,0005.47,0004.12,0003.90
2023-01-29 13:45:00,,0823.1,5.00,0.00,22.7,22.6,00.0,31.4,24.6,04.8,0001.0,0005.79,0004.10,0003.88
2023-01-29 13:46:00,,0823.2,5.02,0.00,22.7,22.0,00.0,31.4,24.4,04.8,0001.2,0006.18,0004.07,0003.85
2023-01-29 13:47:00,,0823.2,4.99,0.00,22.6,21.5,00.0,31.4,24.2,04.8,0000.7,0006.06,0004.03,0003.83
2023-01-29 13:48:00,,0823.1,5.04,0.00,22.6,21.1,00.0,31.4,24.1,04.8,0000.2,0005.97,0004.00,0003.82
2023-01-29 13:49:00,,0823.1,4.98,0.00,22.5,20.8,00.0,31.4,24.0,04.8,0000.0,0005.91,0003.98,0003.79
2023-01-29 13:50:00,,0823.1,5.01,0.00,22.4,20.6,00.0,31.4,24.0,04.8,0000.0,0005.89,0003.96,0003.77
2023-01-29 13:51:00,,0823.1,5.00,0.00,22.4,21.1,00.0,31.4,24.1,04.8,0000.0,0005.71,0003.91,0003.75
2023-01-29 13:52:00,,0823.2,5.01,0.00,22.5,22.0,00.0,31.3,24.3,04.8,0000.0,0005.59,0003.88,0003.73
2023-01-29 13:53:00,,0823.2,4.99,0.00,22.6,22.8,00.0,31.3,24.6,04.8,0000.0,0005.62,0003.87,0003.71
2023-01-29 13:54:00,,0823.2,4.98,0.00,22.7,23.0,00.0,31.4,24.7,04.7,0000.0,0005.72,0003.84,0003.69
2023-01-29 13:55:00,,0823.2,5.00,0.00,22.7,22.3,00.0,31.4,24.5,04.7,0000.0,0005.86,0003.85,0003.68
2023-01-29 13:56:00,,0823.2,5.01,0.00,22.7,21.7,00.0,31.4,24.3,04.7,0000.0,0005.57,0003.84,0003.67
2023-01-29 13:57:00,,0823.2,5.00,0.00,22.6,21.3,00.0,31.4,24.2,04.7,0000.0,0006.11,0003.83,0003.66
2023-01-29 13:58:00,,0823.2,5.01,0.00,22.5,21.0,00.0,31.4,24.1,04.7,0000.0,0006.27,0003.85,0003.66
2023-01-29 13:59:00,,0823.2,5.00,0.00,22.5,20.7,00.0,31.4,24.0,04.8,0000.0,0006.34,0003.86,0003.66
